Location: Dobra
(49.7166°N, 20.2564°E)
Time: 22:19:52
(UTC+01:00)

ISS - Visible Passes

Search period start: 19 January 2018 00:00
Search period end: 29 January 2018 00:00
Orbit: 402 x 407 km, 51.6° (Epoch: 20 January)

Date Brightness Start Highest point End Pass type
(mag) Time Alt. Az. Time Alt. Az. Time Alt. Az.
25 Jan -1.3 18:12:53 10° S 18:13:26 12° SSE 18:13:26 12° SSE visible
26 Jan -1.4 18:55:09 10° SW 18:56:11 18° SSW 18:56:11 18° SSW visible
27 Jan -2.5 18:03:14 10° SSW 18:05:59 25° SE 18:06:11 25° SE visible
28 Jan -1.7 17:11:42 10° S 17:13:47 16° SE 17:15:51 10° E visible
28 Jan -2.6 18:46:32 10° WSW 18:48:46 39° SW 18:48:46 39° SW visible
